Theta_e
323 326 327 328 328 328 329 330 330 330 330 329 329 329 329 327 326 326 325 326 326 326 324 325 325 326 325 323 324 328 327 328 329 330 330 329 328 327 328 324 324 323 324 327
326 327 327 327 327 328 330 330 329 330 330 329 330 329 328 327 326 326 326 326 327 327 325 325 326 326 326 324 323 327 328 329 331 328 329 329 330 328 325 325 326 326 326 326
325 327 326 327 328 329 330 330 329 330 330 330 329 329 328 328 327 325 325 326 327 327 326 325 326 327 326 324 324 326 329 331 332 330 330 328 329 327 327 326 326 326 326 327
325 326 327 327 328 329 330 329 329 329 330 330 328 329 328 328 327 326 326 326 327 328 327 326 326 327 326 324 325 327 330 331 332 327 330 330 329 328 326 325 326 326 326 326
324 326 327 327 328 329 329 328 328 328 329 329 328 329 328 327 326 326 326 326 328 328 327 326 326 327 325 323 325 327 329 330 332 331 330 331 328 327 327 325 324 326 326 326
323 324 326 327 328 328 329 328 327 328 328 330 328 329 328 327 326 325 326 327 329 328 327 326 326 326 324 323 325 327 329 328 331 331 329 330 328 327 326 325 325 327 326 326
323 324 327 327 328 328 328 328 329 330 331 330 328 328 328 327 325 325 327 328 331 328 327 326 326 325 323 323 324 327 328 327 329 330 329 329 330 328 325 325 324 325 327 329
325 325 327 328 329 329 328 328 328 330 331 331 329 329 328 327 325 325 328 331 331 328 326 326 326 325 323 324 323 325 326 326 328 328 329 328 330 328 327 324 325 326 327 327
326 327 326 328 328 328 328 328 327 329 329 329 330 330 328 326 325 327 330 330 330 327 326 326 326 325 322 323 323 325 325 326 326 327 328 327 330 329 326 324 326 325 328 328
327 327 327 327 328 327 327 327 328 328 330 332 330 329 328 326 326 330 332 331 329 326 326 326 326 325 322 323 325 325 325 324 325 326 326 326 329 331 326 325 326 325 324 326
325 328 328 327 329 328 326 327 328 329 329 330 331 330 329 328 327 328 332 331 328 326 326 326 326 325 322 322 324 326 326 323 325 325 326 325 327 328 327 328 324 327 325 325
326 328 330 328 328 328 327 327 329 329 330 329 330 330 328 327 327 328 331 331 328 326 326 326 326 325 322 323 324 325 326 322 322 324 325 324 326 328 329 330 328 327 327 326
327 329 331 331 329 328 328 327 327 329 330 331 330 330 329 329 327 328 330 331 329 327 326 326 326 324 321 323 323 324 326 323 320 320 324 324 324 327 328 329 323 331 329 330
328 330 330 331 331 328 328 326 327 328 331 330 330 329 329 329 328 328 330 330 330 327 326 326 326 324 321 323 323 324 325 323 319 318 320 324 323 325 327 328 326 328 330 331
330 332 328 328 328 328 327 327 326 327 328 330 330 329 329 329 329 328 330 331 330 329 327 326 327 325 322 323 323 323 324 324 319 319 319 321 323 323 326 328 328 326 327 330
331 332 328 327 326 327 328 327 327 326 327 328 329 329 328 327 327 328 328 331 330 330 327 327 327 326 323 322 323 323 324 323 320 319 319 319 322 322 323 327 328 328 326 325
327 330 331 328 326 325 328 327 327 326 325 326 328 328 328 327 328 327 328 330 330 330 328 327 327 327 323 322 323 323 324 323 321 321 320 319 319 321 323 324 325 326 326 326
330 331 328 329 327 328 326 326 326 327 327 327 327 327 328 328 326 326 326 328 330 330 330 328 327 327 325 322 323 323 324 323 321 321 321 319 317 320 322 322 324 325 326 326
329 333 327 330 330 326 325 325 325 326 326 327 328 328 328 326 326 326 326 327 330 330 330 329 328 328 326 323 323 324 323 323 322 322 322 320 317 318 320 322 324 327 327 327
326 328 333 329 329 327 326 325 325 326 328 326 327 327 327 326 326 327 327 327 329 330 330 331 329 328 328 325 323 323 324 323 322 322 322 321 318 318 319 322 325 326 327 327
324 329 330 327 331 326 326 326 325 327 326 329 325 325 326 328 326 326 327 327 328 330 330 331 331 329 328 326 323 323 323 324 323 322 322 321 320 319 319 320 324 325 325 324
323 327 326 327 326 327 326 326 328 327 328 326 326 326 326 326 326 326 327 329 330 330 331 332 331 330 329 328 325 324 323 324 323 322 321 322 321 319 320 321 322 323 322 322
325 324 325 325 327 328 326 327 326 326 327 328 328 328 328 327 327 327 327 330 330 331 331 331 332 331 330 329 327 326 323 323 323 322 322 322 323 319 321 323 323 321 320 320
321 322 326 327 326 327 326 326 327 327 327 327 328 329 329 329 328 329 329 331 331 331 332 331 332 331 331 331 328 327 326 324 323 323 322 322 323 321 320 322 322 320 320 319
320 321 322 324 324 324 324 325 326 327 328 330 330 330 330 330 330 330 330 330 330 332 332 331 331 332 332 332 330 328 328 325 323 323 323 322 324 321 320 321 321 320 319 319
317 319 321 323 323 323 323 323 323 324 326 327 328 328 329 330 330 330 330 330 330 330 331 332 331 331 332 332 331 330 328 327 324 323 323 323 323 323 320 320 320 318 319 318
Wind_Speed
30 18 26 33 28 24 23 18 17 11 9 13 13 17 20 17 18 20 19 15 16 18 17 18 16 13 9 5 4 3 4 8 8 10 9 9 9 7 10 9 9 10 8 6
21 27 28 28 27 26 23 21 16 15 13 9 13 19 20 19 19 19 17 12 14 16 18 19 17 14 10 6 4 2 3 5 6 8 8 6 5 7 12 11 9 6 7 7
31 27 28 27 27 25 23 21 17 18 12 9 14 23 20 7 11 12 11 11 12 17 20 20 18 15 10 7 5 3 1 3 6 8 10 7 4 7 9 14 15 7 5 4
28 28 27 30 27 25 22 19 18 14 13 13 14 14 15 17 7 10 14 15 12 15 19 20 18 16 12 8 7 4 2 2 4 7 7 9 7 5 7 13 14 11 7 6
31 26 28 27 29 26 20 18 17 14 15 18 19 11 14 10 10 7 5 5 10 15 20 21 19 16 12 10 8 6 3 2 3 6 8 9 7 8 4 7 13 11 8 5
31 35 24 27 27 20 20 17 17 11 11 15 19 14 15 10 3 3 5 4 8 14 19 20 19 16 13 10 9 7 4 3 0 4 6 9 10 12 4 6 9 11 9 8
28 33 27 22 20 22 23 14 11 13 13 14 17 12 9 13 4 3 5 6 8 13 20 22 21 18 15 13 11 8 6 3 1 2 5 8 10 12 11 11 11 11 11 11
23 27 30 23 25 23 22 19 13 15 14 14 11 7 3 5 5 4 3 4 7 15 21 22 21 17 15 14 12 9 8 5 3 2 4 8 10 11 11 11 10 12 13 14
24 28 26 26 23 25 19 20 20 22 19 13 6 8 9 7 8 8 2 2 11 19 22 21 20 17 15 15 13 10 8 7 5 2 4 6 8 13 14 11 10 15 16 11
16 19 25 28 21 26 23 18 19 15 19 17 13 11 4 11 10 8 7 8 17 20 21 20 20 17 16 15 13 11 9 7 6 4 4 5 7 7 10 10 10 11 15 16
30 18 23 25 25 26 21 21 17 15 14 13 11 8 8 6 5 2 8 13 20 22 22 21 20 18 17 15 14 12 10 8 8 6 6 7 7 8 9 10 10 12 16 14
32 15 17 29 24 26 26 26 22 11 18 12 12 3 11 7 5 7 4 13 20 22 22 21 20 19 18 17 15 13 11 9 9 8 7 7 8 8 8 10 12 15 16 13
27 18 17 22 20 24 27 25 23 19 14 15 12 13 13 12 7 6 7 12 20 23 22 21 21 20 20 19 17 14 13 11 10 10 9 9 9 8 9 12 11 12 13 13
25 21 26 21 26 22 25 25 25 23 17 16 16 16 13 11 11 11 9 9 17 24 24 23 21 21 21 20 18 16 14 12 12 12 11 10 11 9 10 11 10 13 12 12
26 26 26 26 21 25 23 27 27 28 24 21 18 18 15 11 13 12 15 11 15 22 27 25 23 22 22 21 20 17 15 15 13 13 12 12 12 12 11 11 11 12 12 13
23 24 24 26 26 24 27 26 26 27 25 23 21 17 12 9 11 15 13 15 15 21 27 27 24 23 24 24 22 20 18 17 15 14 13 13 13 14 13 12 12 12 12 12
24 20 23 23 25 26 23 27 28 25 22 22 21 20 18 12 13 14 13 14 15 19 25 29 29 26 25 25 24 22 20 19 18 16 14 15 15 15 15 13 13 13 13 12
22 23 18 20 23 27 21 22 22 24 22 21 19 19 18 19 20 16 18 18 17 18 23 29 29 27 26 25 25 22 21 21 20 18 16 15 17 17 16 16 15 14 13 13
20 19 15 15 19 17 25 17 23 22 22 21 21 20 19 19 19 21 20 19 20 18 21 27 31 29 27 27 27 25 24 22 21 20 18 17 17 18 18 18 17 16 15 14
13 13 14 14 18 24 19 23 16 19 21 22 22 19 17 19 14 11 21 19 18 18 19 22 28 29 29 28 28 28 26 24 24 22 20 18 17 19 20 19 18 17 15 14
17 17 19 15 14 16 17 16 17 20 15 21 28 28 24 16 17 15 14 23 22 19 20 21 26 32 33 32 33 32 28 27 24 22 21 20 19 19 20 22 20 18 16 14
20 19 16 17 16 17 20 14 24 8 2 20 20 23 24 27 23 18 14 8 19 20 22 22 26 30 32 32 33 31 33 28 25 23 22 21 20 19 19 22 21 19 18 16
21 19 15 17 14 6 14 17 14 13 11 9 10 14 16 20 22 22 21 14 16 21 23 24 25 27 29 32 34 33 34 29 27 25 24 24 22 20 19 21 21 20 21 18
18 12 17 14 17 12 8 15 12 16 14 14 12 10 10 18 20 18 21 17 18 24 24 22 26 27 30 33 36 34 28 28 29 28 26 25 24 23 21 20 19 20 21 20
11 17 15 18 14 19 16 12 13 13 13 4 5 10 11 11 14 19 20 18 19 23 22 21 25 28 30 30 32 31 30 30 31 32 30 29 26 27 25 23 22 21 21 22
15 13 11 11 14 7 7 17 13 12 11 16 13 13 10 13 16 16 18 17 20 24 24 22 21 24 27 29 30 32 33 32 34 35 34 32 29 27 25 24 22 24 22 25
Wind_Direction
205 210 209 212 219 229 246 257 253 243 247 250 276 277 285 283 272 272 254 248 237 220 213 206 205 202 204 223 250 280 305 313 342 341 355 345 342 346 334 330 304 256 237 237
205 221 215 217 222 231 241 252 255 262 259 268 289 283 290 282 276 268 249 245 228 210 203 199 199 198 200 210 224 247 304 325 352 336 352 6 348 16 44 32 19 58 171 201
216 215 220 212 224 222 228 242 244 260 271 243 271 268 258 257 272 248 239 255 226 205 199 195 195 197 197 200 199 197 263 18 356 12 0 10 356 7 32 45 42 64 144 176
219 223 210 225 218 223 228 227 247 269 275 266 274 284 294 273 264 256 236 208 213 193 195 194 193 193 193 195 183 180 188 64 353 16 357 354 18 1 39 44 35 50 120 151
220 219 217 213 223 219 233 235 239 229 252 270 264 264 273 267 221 251 249 264 163 183 189 189 190 189 188 186 181 182 173 96 14 4 14 13 23 30 70 41 32 39 94 79
229 214 223 219 216 218 225 227 254 265 259 257 257 253 266 271 128 303 301 194 175 182 182 182 182 182 181 182 182 183 177 135 64 5 18 22 22 23 64 72 52 65 68 81
212 228 211 224 213 213 220 210 229 230 233 248 247 237 284 298 310 327 329 315 157 175 177 176 177 179 180 182 183 177 173 162 134 36 35 21 13 11 69 99 79 70 59 58
209 213 214 203 211 209 205 211 224 219 234 247 141 227 263 217 60 264 284 324 157 174 173 176 177 178 183 183 184 178 174 178 161 78 50 37 34 43 73 103 67 52 63 51
202 217 203 203 201 220 189 214 225 253 284 289 216 212 198 192 212 199 175 186 162 167 170 175 176 180 182 183 182 178 173 179 174 148 88 66 59 78 84 72 57 66 68 67
211 211 218 198 205 218 220 200 217 229 246 261 245 235 244 166 211 117 151 168 162 166 170 177 179 181 182 182 183 180 176 180 178 158 120 105 84 85 75 72 71 62 69 86
230 212 201 187 197 206 203 224 204 244 224 237 248 260 119 152 159 323 147 163 173 173 174 178 181 182 182 181 183 182 181 180 179 163 146 128 107 100 93 76 81 94 82 87
215 215 226 200 200 209 214 210 207 216 222 249 274 245 112 161 205 184 196 159 180 181 178 178 180 183 182 182 184 182 182 183 183 170 159 140 127 117 101 94 93 104 104 83
205 212 218 199 202 202 222 210 217 219 243 235 219 238 183 167 197 196 235 158 180 184 181 180 182 186 186 186 187 184 181 184 182 174 169 151 141 132 121 109 108 111 103 109
200 211 211 213 199 192 208 222 205 217 218 230 242 260 155 175 197 213 188 173 186 189 184 184 186 189 189 188 189 187 182 185 184 176 173 164 150 145 134 122 110 112 118 109
191 218 208 227 204 200 205 214 216 213 220 223 228 233 246 215 191 216 185 187 186 192 189 190 189 191 191 189 189 190 184 184 184 180 176 173 161 155 145 143 135 125 122 122
188 214 215 217 228 203 204 211 222 223 222 223 233 243 225 198 240 195 205 173 199 197 196 194 192 192 192 190 189 188 185 184 183 181 179 176 170 164 160 154 148 141 135 130
186 209 212 220 214 227 223 207 212 221 224 225 225 229 245 233 209 230 205 184 205 202 201 198 196 194 192 191 188 188 185 183 184 182 180 176 176 172 169 161 156 151 148 147
194 202 200 212 221 217 226 220 218 219 222 220 229 236 230 233 233 212 229 204 205 207 202 202 197 195 193 190 188 187 186 185 186 186 185 181 179 179 175 170 167 163 158 155
207 195 208 213 207 216 220 221 224 214 224 216 219 221 235 242 223 230 216 218 195 210 205 204 200 196 191 188 188 185 187 188 189 190 190 187 182 182 181 177 177 170 167 166
212 213 221 205 212 209 210 201 213 223 226 215 215 224 227 223 227 222 204 217 210 203 207 201 198 194 193 190 187 187 189 192 193 192 192 190 186 184 184 184 183 179 177 175
198 207 212 220 212 224 208 182 179 215 218 207 216 223 221 223 231 233 214 216 213 204 206 198 194 194 194 190 189 188 191 196 194 191 191 191 189 186 186 187 188 186 183 188
199 199 206 210 201 220 197 202 181 194 169 179 194 214 214 223 225 232 224 203 191 201 198 191 189 194 195 194 193 193 193 195 193 191 190 192 191 186 187 188 188 188 185 189
206 208 204 213 207 207 198 192 170 185 192 190 181 200 207 214 219 219 215 210 213 200 191 191 190 192 195 197 198 198 197 191 192 192 191 190 191 186 192 187 187 186 190 190
247 257 215 207 207 147 165 185 169 209 227 209 195 215 206 221 219 204 204 202 199 190 190 192 191 192 197 200 203 204 196 193 192 193 193 191 191 188 192 190 192 188 191 188
239 243 262 213 220 197 180 172 196 201 212 222 210 240 207 196 202 200 190 203 204 197 193 193 194 198 200 201 204 203 199 195 195 194 193 192 194 193 196 191 193 192 200 189
241 240 255 224 194 229 185 201 222 242 227 232 240 238 224 204 197 194 197 202 202 200 199 198 199 204 204 204 202 202 201 199 196 195 195 196 194 197 197 197 198 196 202 195